Regional Weather Roundup
Issued by NWS

Home | Current Version | Previous Version | Text Only | Print | Product List | Glossary On
Versions: 1 2 3 4 5 6 7 8 9 10 11 12 13 14 15 16 17 18 19 20 21 22 23 24 25 26 27 28 29 30 31 32 33 34 35 36 37 38 39 40 41 42 43 44 45 46 47 48 49 50
000
ASUS44 KOUN 281710
RWROK

WEATHER ROUNDUP FOR OKLAHOMA
NATIONAL WEATHER SERVICE NORMAN OK
1100 AM CST SUN DEC 28 2014

NOTE: "FAIR" INDICATES FEW OR NO CLOUDS BELOW 12,000 FEET WITH NO
      SIGNIFICANT WEATHER AND/OR OBSTRUCTIONS TO VISIBILITY.

OKZ001>007-009>012-014-015-017-281800-
NORTHWEST OKLAHOMA AND THE PANHANDLE

CITY           SKY/WX    TMP DP  RH WIND       PRES   REMARKS
GAGE           SUNNY     39  16  39 S20       30.13F WCI  29
ENID/WOODRING  MOSUNNY   36  25  64 SE8       30.23F WCI  29
$$

OKZ016-021>023-033>039-044-045-281800-
SOUTHWEST OKLAHOMA

CITY           SKY/WX    TMP DP  RH WIND       PRES   REMARKS
LAWTON/REGL    SUNNY     29  23  78 S5        30.28F WCI  24
LAWTON/FT SILL SUNNY     31  23  72 S6        30.25F WCI  25
FREDERICK      SUNNY     35  27  72 S6        30.23F WCI  30
CLINTON        SUNNY     38  17  42 S15       30.21F WCI  29
HOBART         SUNNY     37  22  54 S13       30.23F WCI  29
ALTUS AFB      SUNNY     36  24  63 S10       30.24F WCI  28
$$

OKZ018>020-024>031-281800-
CENTRAL OKLAHOMA

CITY           SKY/WX    TMP DP  RH WIND       PRES   REMARKS
OKLAHOMA CITY  MOSUNNY   32  20  61 S7        30.26S WCI  26
OKC/WILEY POST SUNNY     34  21  59 S12       30.26S WCI  25
OKC/TINKER AFB SUNNY     34  22  62 S7        30.25F WCI  28
STILLWATER     SUNNY     36  21  54 S7        30.26F WCI  30
GUTHRIE        SUNNY     36  21  54 VRB6      30.25F WCI  31
$$

OKZ008-013-054>072-281800-
NORTHEAST OKLAHOMA

CITY           SKY/WX    TMP DP  RH WIND       PRES   REMARKS
TULSA          MOSUNNY   31  23  72 CALM      30.29S
TULSA/JONES    SUNNY     33  23  66 CALM      30.29F
PONCA CITY     SUNNY     35  21  56 S7        30.25F WCI  29
BARTLESVILLE   SUNNY     32  21  64 CALM      30.30F
MUSKOGEE       PTSUNNY   30  25  81 N3        30.30F
$$

OKZ032-040>043-046>053-073>077-281800-
SOUTH CENTRAL/SOUTHEAST OKLAHOMA

CITY           SKY/WX    TMP DP  RH WIND       PRES   REMARKS
ARDMORE/DWNTWN SUNNY     36  23  60 CALM      30.27F
MCALESTER      CLOUDY    32  26  78 N6        30.28S WCI  26
$$



USA.gov is the U.S. government's official web portal to all federal, state and local government web resources and services.